[[{"header":{"parameterUnit":"m.s-1","parameterCategory":1,"la1":30.2991,"la2":30.254,"lo1":-89.0895,"lo2":-89.0444,"dy":0.0017,"dx":0.0017,"nx":28,"ny":28,"refTime":"2024-09-27T03:00:00:Z","depth":0,"parameterNumber":2,"parameterNumberName":"U-component_of_WINDS"},"data":[0,0,0,0,0,0,0,0,0,0,0,0,0,0,0,0,0,0,0,0,0,0,0,0,0,0,0,0,0,0,0,0,0,0,0,0,0,0,0,0,0,0,0,0,0,0,0,0,0,0,0,0,0,0,0,0,0,0,6.0837,6.084,0,6.1095,6.1098,6.1101,6.1046,6.1042,6.1037,6.1032,6.13,6.1312,6.1323,0,0,0,0,0,0,0,0,0,0,0,0,0,6.0299,6.0309,6.0837,6.084,6.0844,6.1095,6.1098,6.1102,6.1047,6.1041,6.1036,6.103,6.1297,6.131,6.1324,0,0,0,0,0,0,0,0,0,0,0,0,0,6.0542,6.0312,6.0837,6.0847,6.085,6.1094,6.1098,6.1103,6.1048,6.1041,6.1034,6.1027,6.1292,6.1309,6.1326,6.1577,0,0,6.1379,6.1387,0,0,0,0,0,0,0,0,6.0529,6.0562,6.0842,6.0846,6.0851,6.1031,6.1007,6.1262,6.105,6.0973,6.1032,6.1024,6.1217,6.124,6.1304,6.159,6.1601,6.1381,6.1391,6.1399,6.1404,0,0,0,0,0,0,0,6.0512,6.0551,6.0939,6.0846,6.0851,6.0838,6.0865,6.1055,6.1132,6.0979,6.0976,6.1007,6.1218,6.1288,6.131,6.1605,6.138,6.1396,6.1406,6.1413,6.2106,6.2113,0,0,0,0,0,0,6.0491,6.0537,6.0931,6.0947,6.0668,6.0854,6.0884,6.0981,6.113,6.1146,6.1013,6.1004,6.1261,6.129,6.1319,6.162,6.1399,6.1415,6.1425,6.2098,6.2108,6.2116,0,0,0,0,0,0,6.0479,6.0526,6.0921,6.0741,6.079,6.0871,6.098,6.0989,6.1059,6.1155,6.1169,6.107,6.1257,6.1295,6.1512,6.1629,6.1423,6.1439,6.2089,6.2101,6.2112,6.2226,0,0,0,0,0,0,6.0464,6.0523,6.0619,6.0744,6.08,6.1109,6.0987,6.1,6.1089,6.1079,6.1212,6.1228,6.1254,6.1487,6.153,6.1649,6.1452,6.2078,6.2094,6.2108,6.2212,6.224,6.2264,0,0,0,0,0,6.0445,6.0642,6.0624,6.0672,6.0922,6.1116,6.1148,6.1174,6.1098,6.1195,6.1257,6.1223,6.1609,6.1509,6.1557,6.1684,6.2071,6.209,6.2107,6.22,6.2234,6.2263,0,0,0,0,0,0,6.0531,6.0659,6.064,6.0883,6.0989,6.1106,6.123,6.121,6.134,6.1326,6.1353,6.1384,6.1604,6.1666,6.1552,6.1933,6.183,6.1858,6.1884,6.1917,6.1943,6.1922,6.1467,0,0,0,0,0,6.0578,6.0724,6.0829,6.1033,6.1087,6.1149,6.1235,6.1245,6.1356,6.1401,6.1479,6.1588,6.1734,6.1829,6.1969,6.2221,6.2248,6.2331,6.2357,6.2378,6.2402,6.2536,6.2573,6.2175,6.2175,6.2175,0,0,6.0677,6.0765,6.0856,6.1053,6.1136,6.1286,6.1188,6.1352,6.1464,6.1427,6.1635,6.1696,6.182,6.2055,6.2162,6.2113,6.2518,6.2401,6.2417,6.243,6.2558,6.2596,6.2629,6.2187,6.2185,6.2183,0,0,6.0934,6.1016,6.1194,6.1278,6.1404,6.1444,6.1486,6.1607,6.1645,6.1854,6.1828,6.1962,6.2214,6.2302,6.238,6.2667,6.264,6.2712,6.2848,6.2978,6.301,6.3037,6.3137,6.3173,6.2736,6.2736,6.2736,0,6.1041,6.1266,6.1288,6.1454,6.154,6.1511,6.169,6.1772,6.1938,6.1998,6.194,6.2252,6.2335,6.2587,6.2657,6.2722,6.277,6.2696,6.3003,6.3031,6.3058,6.3153,6.319,6.2744,6.2743,6.2742,6.2741,0,6.139,6.1547,6.1675,6.1833,6.1934,6.2106,6.2153,6.2253,6.2254,6.23,6.2512,6.2609,6.2766,6.2827,6.2832,6.3081,6.3046,6.2996,6.2893,6.3103,6.3192,6.3229,6.2755,6.2752,6.275,6.2748,0,0,6.1709,6.1874,6.1921,6.199,6.2126,6.2247,6.2418,6.2569,6.2652,6.2768,6.291,6.3122,6.3075,6.3163,6.3177,6.3292,6.3509,6.3228,6.3231,6.3274,6.3786,6.382,6.3862,6.3492,6.3499,6.3505,6.3774,0,6.1975,6.2273,6.2296,6.2565,6.2707,6.2681,6.2829,6.2928,6.2975,6.3103,6.3156,6.3304,6.3233,6.3286,6.3398,6.3458,6.3611,6.344,6.3623,6.363,6.359,6.391,6.3948,6.4197,6.381,6.3816,6.382,0,6.2326,6.2448,6.273,6.2842,6.2903,6.3035,6.3174,6.3298,6.3409,6.3435,6.3532,6.3529,6.3703,6.3594,6.3833,6.3715,6.3792,6.3833,6.3843,6.3859,6.3736,6.3932,6.4277,6.4313,6.3876,6.3872,6.3868,0,6.2526,6.2761,6.2959,6.302,6.3157,6.325,6.3311,6.3415,6.3504,6.3626,6.3683,6.3825,6.3902,6.4012,6.4047,6.3965,6.4284,6.4178,6.4309,6.4308,6.4375,6.437,6.4735,6.443,6.4429,6.4428,6.4428,0,6.2819,6.2992,6.305,6.3172,6.3363,6.3389,6.3578,6.3635,6.3727,6.3859,6.3846,6.397,6.401,6.4141,6.417,6.4361,6.4397,6.4422,6.4427,6.4422,6.4418,6.4471,6.4453,6.4438,6.4436,6.4434,6.4432,0,6.3074,6.312,6.3333,6.3444,6.3476,6.3612,6.3707,6.3824,6.3868,6.4035,6.4075,6.4145,6.4298,6.4343,6.4529,6.4548,6.4771,6.4763,6.4733,6.4733,6.4859,6.4845,6.5268,6.5324,6.4984,6.4988,6.499,0,6.3257,6.3388,6.3512,6.3598,6.3663,6.3803,6.3892,6.3922,6.4015,6.415,6.425,6.4401,6.4522,6.4768,6.4835,6.4976,6.4969,6.5107,6.499,6.4979,6.4967,6.4958,6.4969,6.5129,6.5132,6.5135,6.5138,0,6.3575,6.359,6.3719,6.3855,6.3961,6.407,6.4175,6.4247,6.4291,6.4397,6.4552,6.4646,6.4833,6.4982,6.5125,6.5188,6.5171,6.5174,6.5211,6.5205,6.5181,6.5193,6.479,6.5164,6.5161,6.5159,6.5158,6.5157,6.3798,6.3912,6.4015,6.4158,6.4239,6.4337,6.445,6.4507,6.4637,6.4789,6.48,6.4967,6.5073,6.5261,6.5332,6.5463,6.5423,6.5478,6.5491,6.5503,6.5512,6.5162,6.549,6.5489,6.5489,6.5488,6.5488,0,6.4112,6.4177,6.4308,6.4453,6.4565,6.4537,6.4651,6.4746,6.4892,6.4992,6.5111,6.5288,6.5432,6.5509,6.5652,6.5742,6.5737,6.5779,6.5771,6.5785,6.5541,6.5493,6.578,6.578,6.578,6.578,6.5779,6.5779,6.4289,6.4479,6.4506,6.4736,6.4801,6.4962,6.5029,6.5119,6.5197,6.5394,6.5513,6.5562,6.5653,6.5801,6.5932,6.5951,6.6003,6.6048,6.6063,6.5833,6.5803,6.5774,6.5729,6.606,6.6061,6.6295,6.6297,6.6299]},{"header":{"parameterUnit":"m.s-1","parameterCategory":1,"la1":30.2991,"la2":30.254,"lo1":-89.0895,"lo2":-89.0444,"dy":0.0017,"dx":0.0017,"nx":28,"ny":28,"refTime":"2024-09-27T03:00:00:Z","depth":0,"parameterNumber":3,"parameterNumberName":"V-component_of_WINDS"},"data":[0,0,0,0,0,0,0,0,0,0,0,0,0,0,0,0,0,0,0,0,0,0,0,0,0,0,0,0,0,0,0,0,0,0,0,0,0,0,0,0,0,0,0,0,0,0,0,0,0,0,0,0,0,0,0,0,0,0,3.0221,3.0222,0,3.0263,3.0264,3.0264,3.022,3.0218,3.0217,3.0215,3.0256,3.0259,3.0262,0,0,0,0,0,0,0,0,0,0,0,0,0,3.01,3.0103,3.0221,3.0222,3.0222,3.0263,3.0264,3.0264,3.022,3.0218,3.0216,3.0214,3.0255,3.0259,3.0262,0,0,0,0,0,0,0,0,0,0,0,0,0,3.0149,3.0103,3.0221,3.0205,3.0204,3.0263,3.0264,3.0265,3.0221,3.0218,3.0216,3.0213,3.0254,3.0258,3.0262,3.0338,0,0,3.0275,3.0276,0,0,0,0,0,0,0,0,3.0146,3.0153,3.0207,3.0207,3.0206,3.0234,3.0236,3.0289,3.0222,3.0215,3.0215,3.0212,3.0251,3.0255,3.0268,3.034,3.0342,3.0275,3.0277,3.0279,3.028,0,0,0,0,0,0,0,3.0143,3.0151,3.0238,3.0208,3.0207,3.0195,3.0199,3.0246,3.0246,3.0215,3.0212,3.0218,3.025,3.0265,3.0269,3.0342,3.0275,3.0278,3.0281,3.0282,3.0476,3.0479,0,0,0,0,0,0,3.0141,3.0148,3.0237,3.0239,3.0169,3.02,3.0204,3.0227,3.0246,3.0246,3.022,3.0215,3.0259,3.0264,3.027,3.0359,3.0279,3.0283,3.0285,3.0473,3.0477,3.048,0,0,0,0,0,0,3.0139,3.015,3.0235,3.0193,3.0203,3.0204,3.0231,3.023,3.0244,3.0249,3.0249,3.0235,3.0257,3.0265,3.0321,3.036,3.0285,3.0288,3.047,3.0474,3.0478,3.0538,0,0,0,0,0,0,3.0136,3.0149,3.0179,3.0194,3.0205,3.0286,3.0233,3.0232,3.0252,3.0246,3.0264,3.0264,3.0256,3.0316,3.0325,3.0364,3.0291,3.0467,3.0472,3.0477,3.0533,3.0544,3.0553,0,0,0,0,0,3.0131,3.0194,3.0181,3.0191,3.0243,3.0289,3.0295,3.0285,3.0255,3.0284,3.0287,3.0263,3.0354,3.0322,3.0332,3.0373,3.0464,3.0471,3.0477,3.0528,3.0542,3.0553,0,0,0,0,0,0,3.0183,3.0196,3.0181,3.0251,3.0269,3.0281,3.0318,3.03,3.0327,3.0321,3.0306,3.031,3.037,3.0377,3.0341,3.0446,3.0404,3.0413,3.044,3.0453,3.0463,3.046,3.0295,0,0,0,0,0,3.0203,3.024,3.0248,3.0309,3.0319,3.0317,3.0337,3.0327,3.0345,3.0353,3.036,3.0378,3.041,3.0432,3.0462,3.0533,3.0536,3.0566,3.0577,3.0585,3.0592,3.0629,3.0642,3.05,3.05,3.05,0,0,3.0243,3.0255,3.0279,3.0319,3.0333,3.037,3.0324,3.0366,3.0393,3.0359,3.0413,3.0418,3.0437,3.0501,3.053,3.0509,3.0632,3.0593,3.0599,3.0602,3.0637,3.065,3.0662,3.0504,3.0503,3.0503,0,0,3.0336,3.0349,3.04,3.0414,3.0435,3.0433,3.0445,3.046,3.0462,3.0516,3.049,3.0522,3.0579,3.0593,3.0607,3.0704,3.0682,3.0714,3.0767,3.0803,3.0815,3.0824,3.0858,3.087,3.0721,3.0721,3.0722,0,3.0384,3.0441,3.0429,3.0473,3.049,3.0461,3.0511,3.0525,3.0554,3.0567,3.0543,3.0612,3.0623,3.0689,3.0712,3.0725,3.0738,3.0712,3.0814,3.0824,3.0833,3.0864,3.0877,3.0725,3.0725,3.0724,3.0724,0,3.0498,3.0537,3.0576,3.0605,3.0627,3.0674,3.0668,3.0691,3.0679,3.0679,3.0734,3.0745,3.0776,3.0791,3.078,3.0856,3.0842,3.0816,3.0774,3.085,3.088,3.0892,3.073,3.0729,3.0728,3.0727,0,0,3.0626,3.0646,3.0661,3.0672,3.0692,3.0722,3.0766,3.0797,3.0817,3.0838,3.0874,3.0922,3.0898,3.0914,3.0904,3.0936,3.101,3.0906,3.0906,3.0924,3.1092,3.1111,3.1125,3.0996,3.0998,3.1,3.109,0,3.0718,3.0797,3.0787,3.0862,3.0897,3.0868,3.0907,3.0923,3.0924,3.0953,3.0953,3.0987,3.0953,3.0963,3.0993,3.0995,3.1043,3.0988,3.1029,3.103,3.1024,3.1141,3.1161,3.1245,3.1102,3.1104,3.1105,0,3.0838,3.0862,3.0941,3.0953,3.0968,3.1003,3.1029,3.1058,3.1074,3.1072,3.109,3.1074,3.1117,3.1074,3.1133,3.1095,3.1111,3.1114,3.1117,3.112,3.1072,3.1146,3.1272,3.1285,3.1123,3.1122,3.112,0,3.0922,3.0974,3.1028,3.1039,3.1055,3.108,3.1088,3.1102,3.112,3.1143,3.1155,3.1182,3.1197,3.1218,3.121,3.1179,3.127,3.1226,3.1268,3.1269,3.1289,3.1288,3.1418,3.13,3.13,3.13,3.1299,0,3.1026,3.1075,3.1065,3.1098,3.1152,3.1139,3.1191,3.1195,3.1208,3.124,3.1217,3.1247,3.1234,3.1263,3.1256,3.1305,3.1312,3.1311,3.1309,3.1313,3.1313,3.1323,3.1317,3.1303,3.1302,3.1301,3.1301,0,3.1129,3.1125,3.1181,3.1191,3.1195,3.1234,3.1242,3.1272,3.1271,3.1311,3.132,3.1318,3.1351,3.1344,3.138,3.1376,3.1437,3.1427,3.1432,3.1429,3.1472,3.1467,3.1613,3.1631,3.1502,3.1503,3.1504,0,3.1196,3.1233,3.1247,3.1267,3.1276,3.1309,3.1328,3.1316,3.1336,3.1356,3.1384,3.1414,3.1439,3.1492,3.1493,3.152,3.1511,3.156,3.1515,3.1518,3.151,3.1508,3.1511,3.1569,3.157,3.1572,3.1573,0,3.1314,3.131,3.1338,3.1365,3.1388,3.1409,3.1427,3.1445,3.1434,3.1458,3.1491,3.151,3.1547,3.1577,3.1602,3.1609,3.1589,3.1587,3.1598,3.1602,3.1603,3.1602,3.1455,3.1583,3.1582,3.1582,3.1581,3.1581,3.14,3.1431,3.1446,3.1477,3.149,3.1507,3.1535,3.1537,3.1565,3.1594,3.1585,3.1623,3.1637,3.1668,3.1678,3.1706,3.1688,3.1704,3.1708,3.1712,3.1717,3.1599,3.1711,3.171,3.171,3.171,3.171,0,3.1517,3.1524,3.1554,3.158,3.1604,3.1584,3.1602,3.1624,3.1658,3.1672,3.1696,3.1734,3.1763,3.1766,3.1793,3.1815,3.1807,3.1823,3.1821,3.1822,3.1732,3.172,3.1829,3.1829,3.1829,3.1829,3.1829,3.1829,3.158,3.1631,3.1628,3.1684,3.1691,3.1728,3.174,3.1756,3.1767,3.181,3.1834,3.1836,3.1845,3.1873,3.1898,3.1898,3.1908,3.1928,3.1924,3.1841,3.1829,3.1817,3.1805,3.1931,3.1931,3.2012,3.2012,3.2013]}]]